GFSFLT1_con_3kmhel_126.txt.gz
Helicity
474 495 449 423 411 397 319 252 221 238 199 104 -38 -52 -24 -30 -66 -41 80 177 242 137 125 104 136 180 186 184 166 166 138 122
409 411 401 452 350 318 336 298 233 136 86 41 -53 -129 -149 -97 -46 -30 -20 55 110 171 139 177 314 145 95 184 189 185 176 143
327 345 391 307 244 249 246 261 211 134 48 55 23 -9 -86 -87 -61 -33 -2 10 67 138 288 172 14 81 61 137 183 183 166 223
292 241 212 245 276 224 152 101 95 61 54 -22 -30 -2 -66 -136 -108 -65 -27 33 59 86 174 279 140 187 178 85 155 175 117 212
199 148 138 94 102 88 50 21 7 2 35 17 2 -36 -58 -62 -110 -47 -27 -8 -3 71 115 190 285 159 167 105 214 274 219 166
127 112 78 26 5 -38 -56 -55 -30 -2 28 64 63 58 33 1 -42 -43 -5 -6 2 27 102 128 176 234 163 111 126 208 175 235
52 53 41 23 44 51 48 63 86 87 97 86 74 46 19 -5 -16 -37 -54 -18 -1 18 82 129 116 135 166 136 97 85 131 169
-9 -31 -37 -24 -6 32 43 85 93 93 83 87 95 72 40 6 -9 -35 -53 -34 16 50 91 147 169 148 152 162 124 95 113 129
-41 -29 -23 19 60 74 90 116 87 92 80 73 74 77 68 43 6 1 -1 -14 10 75 109 126 159 190 124 107 114 135 109 120
-5 -2 6 44 65 87 67 87 93 85 79 69 88 92 93 78 92 69 55 46 33 63 103 124 122 161 197 147 107 99 94 183
0 14 19 51 68 97 81 70 63 68 89 94 80 96 88 102 89 101 85 57 56 84 87 97 107 97 104 174 171 105 97 164
34 43 27 39 30 75 37 65 62 53 67 107 97 75 89 71 30 65 76 80 100 113 79 100 91 85 90 124 178 211 146 142
45 10 3 8 25 71 79 101 73 59 58 103 142 122 108 75 86 87 85 71 94 128 175 254 229 147 120 127 158 244 209 173
29 11 19 39 69 91 93 99 64 49 37 88 178 197 146 157 174 197 209 202 196 234 262 269 262 235 215 215 238 186 211 195
24 36 45 48 65 52 65 53 34 50 -2 64 112 219 211 196 253 258 268 320 343 318 297 307 308 305 313 279 273 322 366 359
61 62 58 57 43 55 85 72 45 54 29 13 46 69 106 160 280 367 396 359 388 492 525 484 405 321 295 261 193 295 384 429
61 69 75 39 39 59 72 76 65 -2 10 -15 50 86 94 61 90 147 229 224 340 514 618 671 608 479 459 426 336 322 379 539
75 49 12 30 42 54 85 102 74 75 77 91 69 53 30 -8 -24 -24 14 77 97 101 239 445 583 542 444 381 345 394 457 389
18 21 35 52 57 63 73 70 80 93 110 110 86 66 55 68 59 57 58 35 26 46 66 82 125 180 197 291 313 346 385 435

GFSFLT1_con_3kmhel_132.txt.gz
Helicity
202 187 164 135 114 116 108 90 89 97 87 142 138 102 109 102 130 122 142 122 140 108 95 69 63 49 8 75 57 137 83 83
154 153 141 138 112 94 57 52 47 19 -21 -35 20 82 102 66 55 68 99 99 99 102 88 79 81 89 73 70 185 267 183 66
164 165 154 139 129 128 116 96 70 41 -5 -2 -39 -36 7 75 46 65 52 60 72 80 91 83 106 115 96 127 105 176 283 76
86 110 80 58 61 63 66 77 65 67 62 22 7 9 -9 -15 28 54 59 37 53 77 95 121 128 158 135 132 190 192 255 110
61 60 67 37 20 -13 8 6 30 22 60 59 66 49 49 18 -9 -17 18 93 70 85 118 154 166 195 153 147 183 172 260 293
76 94 51 -11 -52 -66 -53 -64 -42 -8 16 51 56 61 47 35 32 42 37 27 71 75 101 161 168 183 201 190 202 214 201 252
102 37 -20 -42 -85 -81 -104 -82 -47 -19 16 37 49 30 45 54 69 74 74 86 116 96 54 101 180 175 202 222 241 212 215 228
43 36 6 -15 -38 -30 -21 13 36 63 66 43 44 68 84 66 88 89 90 102 141 104 58 59 124 161 172 187 220 224 211 197
48 40 11 11 8 21 43 71 84 83 74 75 76 92 95 94 120 120 93 86 46 31 34 68 124 149 146 172 183 167 152 179
60 32 32 29 27 33 32 62 56 37 20 11 34 91 134 119 107 89 68 72 56 48 48 69 103 121 141 152 173 181 220 168
72 52 39 62 47 30 40 48 41 13 6 11 79 122 94 65 53 51 67 63 57 61 77 106 133 149 121 140 149 155 171 156
75 62 81 83 53 54 46 39 20 14 9 25 77 104 60 51 47 49 86 92 92 91 96 124 163 219 229 176 140 118 143 160
97 101 103 74 57 42 23 20 2 7 -20 -22 16 37 59 91 89 114 136 150 114 114 126 153 187 206 207 238 198 165 134 165
127 128 88 56 28 81 95 7 -23 -33 -17 -40 -27 36 53 88 131 168 177 194 191 154 151 183 189 221 232 239 259 279 276 239
124 106 65 45 69 84 35 -15 -26 -46 -53 -46 -30 9 27 87 99 107 114 109 153 182 209 209 225 230 245 257 293 336 386 471
139 84 45 55 21 9 21 19 7 -6 -9 -9 -12 -3 0 14 11 30 75 83 21 -23 69 202 284 274 217 212 283 370 398 441
116 76 58 17 28 33 23 20 6 -12 4 9 18 31 58 57 61 52 54 53 38 43 27 -23 63 123 183 252 212 281 379 366
96 64 28 9 33 34 30 18 9 -1 8 29 43 59 64 80 77 77 62 43 32 67 80 90 53 -18 -21 -14 52 162 237 324
78 46 22 35 29 31 27 23 16 18 17 23 36 60 73 97 111 101 59 16 6 16 48 61 83 104 93 59 41 7 17 111

GFSFLT1_con_3kmhel_135.txt.gz
Helicity
161 158 129 105 97 92 84 79 93 101 74 97 102 102 104 90 133 150 158 166 173 149 126 115 127 118 102 61 60 97 106 335
139 126 105 99 92 93 85 90 80 73 61 73 47 70 123 136 118 125 155 146 155 181 154 139 132 124 138 133 109 69 67 -8
134 131 114 120 100 86 81 75 67 50 32 31 26 57 29 20 61 127 116 128 128 127 134 141 144 140 127 137 134 128 112 134
96 100 88 69 79 68 63 58 69 57 81 62 64 69 77 83 91 45 90 132 123 114 123 120 133 144 146 168 189 168 185 130
90 90 76 72 67 31 24 -11 2 2 20 39 84 91 111 101 82 79 69 53 96 151 151 162 161 166 160 176 198 219 217 190
103 80 69 36 -1 -34 -54 -51 -21 -9 1 6 -8 3 44 81 98 111 122 96 72 68 135 174 167 189 196 203 199 236 269 207
99 76 53 11 -3 -10 -10 13 14 34 27 31 42 57 70 75 79 73 73 111 137 111 85 143 155 178 203 208 200 176 213 237
102 83 74 69 36 20 4 24 23 32 29 23 35 62 68 66 69 64 76 87 109 132 168 180 150 118 146 179 178 167 215 258
106 93 70 39 34 27 41 43 45 47 5 -12 22 57 74 90 104 110 120 118 114 142 144 137 120 91 93 141 128 120 147 182
108 91 63 36 44 64 57 39 40 28 1 1 44 62 77 75 76 65 51 51 45 41 74 81 85 80 94 103 101 85 104 134
114 102 82 79 81 71 54 26 25 6 -2 -17 12 28 51 42 26 23 43 70 72 53 57 61 86 113 160 74 69 78 97 122
123 112 95 103 98 65 53 27 17 10 -31 -50 -22 9 17 30 66 101 119 114 100 93 82 90 94 115 168 199 151 114 113 125
129 99 118 116 97 78 61 8 -52 -63 -22 -21 -42 -44 -43 -17 62 96 129 137 131 146 127 125 131 145 176 207 228 280 324 284
129 133 134 137 97 90 91 -16 -34 -28 -43 -46 -42 -49 -23 13 42 46 23 66 114 180 191 177 191 182 169 178 201 237 273 291
123 141 133 132 75 53 6 -2 -2 -18 -23 -33 -40 -13 4 19 29 44 46 37 59 112 163 187 221 211 204 183 176 201 234 283
130 123 113 86 79 16 14 11 2 -9 -16 -17 -6 -3 4 27 40 41 66 59 70 67 32 86 163 221 232 246 198 176 185 195
140 116 101 57 9 28 15 16 3 -2 -7 -2 8 15 36 43 61 59 73 51 79 91 98 77 77 22 -11 75 124 217 240 231
105 107 81 44 18 29 15 11 -4 -4 -3 2 13 32 46 64 47 72 86 81 119 93 97 101 93 46 35 30 42 28 22 159
97 81 43 25 40 29 23 17 10 3 -12 -10 -3 13 5 11 7 14 6 -25 -16 -1 32 38 54 56 39 6 -3 12 41 66

GFSFLT1_con_3kmhel_138.txt.gz
Helicity
110 100 80 75 81 74 75 78 87 101 78 89 104 116 133 118 119 123 153 176 197 200 202 176 152 129 120 145 124 128 87 70
89 79 82 85 82 87 91 75 65 55 59 73 82 88 86 91 128 142 139 142 170 198 195 198 184 178 161 159 141 135 121 87
101 105 97 90 89 82 94 97 86 69 62 52 54 66 83 100 102 112 95 136 143 151 196 212 203 197 184 172 171 166 140 111
108 109 102 91 90 88 86 65 48 40 56 52 78 91 102 113 135 112 139 145 121 128 131 151 186 199 195 181 181 177 178 145
103 99 94 84 91 66 31 9 13 16 26 32 52 51 81 118 133 155 158 122 115 133 171 186 194 194 192 177 168 175 213 175
119 107 89 94 58 40 9 16 19 30 31 28 21 40 46 50 56 74 90 140 169 156 120 134 193 228 236 251 267 244 225 212
124 100 110 95 79 58 47 42 43 63 51 21 31 56 74 74 79 69 77 91 130 178 214 190 160 175 208 222 194 228 273 274
143 166 136 110 92 75 58 67 59 50 26 -21 8 35 40 40 67 86 113 116 132 138 164 149 137 162 200 217 222 191 174 226
182 139 127 117 91 76 65 67 52 46 26 -8 8 48 32 30 59 63 62 62 79 82 101 118 132 149 148 145 151 160 164 151
152 145 133 108 85 76 70 63 54 74 21 -2 6 34 45 40 36 29 29 25 18 27 21 34 55 82 95 99 94 93 125 127
176 121 132 94 76 89 78 64 51 35 10 -4 -21 7 27 25 22 34 48 55 46 50 44 49 47 68 114 152 67 68 69 78
166 150 129 104 111 113 70 63 6 -23 -31 -26 -23 -45 -56 -50 -36 -17 10 48 77 91 68 80 90 109 151 153 189 174 196 229
183 146 114 105 132 96 70 20 -12 -27 -32 -14 -27 -44 -42 -52 -59 -80 -64 10 76 118 97 92 127 157 152 181 185 217 238 223
185 130 102 130 132 68 81 2 -4 -10 -26 -20 -25 -32 -38 -32 -30 -34 -39 -38 -2 79 139 133 140 163 167 160 152 168 205 240
168 120 108 130 104 56 13 -16 -1 5 -2 -5 -8 -4 -8 -0 -1 3 -11 -22 -17 -39 -20 40 132 182 185 153 173 190 182 190
159 125 126 103 60 28 -18 7 22 15 2 -4 -4 -1 18 26 17 18 8 10 18 26 2 -32 -16 18 62 122 141 182 225 219
167 129 123 94 44 3 21 35 19 15 9 6 7 14 28 29 42 44 47 42 50 52 45 32 27 24 31 16 -9 35 127 176
152 136 111 88 38 33 31 31 22 16 10 12 8 4 4 8 8 6 12 11 23 39 84 86 77 57 38 25 36 24 33 41
144 113 101 76 27 59 45 33 26 21 16 12 10 3 -6 -7 -13 -12 -16 -18 -9 -1 20 39 44 77 57 33 4 -4 8 54